Regional Weather Roundup
Issued by NWS

Home | Current Version | Previous Version | Graphics & Text | Print | Product List | Glossary On
Versions: 1 2 3 4 5 6 7 8 9 10 11 12 13 14 15 16 17 18 19 20 21 22 23 24 25 26 27 28 29 30 31 32 33 34 35 36 37 38 39 40 41 42 43 44 45 46 47 48 49 50
000
ASUS45 KSLC 050110
RWRUT

UTAH REGIONAL WEATHER ROUNDUP
NATIONAL WEATHER SERVICE SALT LAKE CITY UT
700 PM MDT FRI SEP 04 2015

UTZ001>011-023>025-050200-

NORTHERN UTAH

CITY           SKY/WX    TMP DP  RH WIND       PRES   REMARKS
BRIGHAM CITY   MOCLDY    83  35  18 SE10      29.71R
HILL AFB       MOCLDY    80  38  21 S13       29.75S
LOGAN          CLEAR     82  37  20 S10       29.71F
OGDEN          MOCLDY    82  34  17 S21G30    29.71F HAZE
PROVO AIRPORT  NOT AVBL
SALT LAKE CITY MOCLDY    85  33  15 S21G36    29.71S
VERNAL         LGT RAIN  63  50  62 NE3       29.93F
WENDOVER       MOSUNNY   86  25  10 S24G31    29.66S
HEBER CITY     PTCLDY    75  34  22 W9        29.84F
WEST JORDAN    CLEAR     82  36  18 S23G32    29.76R

$$

UTZ012>022-026-027-050200-

SOUTHERN/CENTRAL UTAH

CITY           SKY/WX    TMP DP  RH WIND       PRES   REMARKS
BLANDING       PTCLDY    64  52  65 N7        30.11S
BRYCE CANYON   PTCLDY    65  38  36 S10       30.10R
CEDAR CITY     SUNNY     75  35  23 SW25G35   29.92S
DELTA          SUNNY     82  34  17 S18G31    29.81R
HANKSVILLE     CLEAR     84  41  21 S18       29.86S
MILFORD        SUNNY     80  40  23 SW24G37   29.84S
MOAB/CYNLANDS  PTCLDY    83  45  26 S13       29.85F
PRICE          CLOUDY    72  43  35 NW16G22   29.92S
ST GEORGE      PTCLDY    91  41  17 SW26G35   29.77R
KANAB          PTCLDY    79  45  29 SW9       29.97

$$

REGIONAL REPORTS     COLORADO/ARIZONA

CITY           SKY/WX    TMP DP  RH WIND       PRES   REMARKS
CRAIG, CO      MOCLDY    72  47  40 CALM      30.02S
GRAND JUNCTION MOCLDY    68  57  68 E14       29.96F
RIFLE          CLOUDY    60  57  89 E8        30.05S
MONTROSE       MOCLDY    64  54  69 SE9       30.08S
CORTEZ         CLEAR     67  51  56 SW8       30.07S
PAGE, AZ       PTCLDY    82  44  26 S6        29.89R
GRAND CANYON   PTCLDY    70  42  36 SW16G23   30.09R
KINGMAN        SUNNY     86  44  23 SW24G32   29.87F
FLAGSTAFF      CLOUDY    55  53  93 N3        30.16F THUNDER

$$

REGIONAL REPORTS    NEVADA/IDAHO/WYOMING

CITY           SKY/WX    TMP DP  RH WIND       PRES   REMARKS
LAS VEGAS, NV  MOSUNNY   93  40  15 S15G28    29.67S
ELY            SUNNY     74  18  12 SW24G33   29.84F
ELKO           MOSUNNY   75  23  14 W23G32    29.73R
POCATELLO, ID  MOSUNNY   75  46  35 NW10      29.71F
BURLEY         PTSUNNY   71  43  36 VRB7      29.67F
EVANSTON, WY   PTCLDY    70  28  21 S18       29.94R
ROCK SPRINGS   LGT RAIN  60  44  55 SW36G58   30.02R
KEMMERER       PTCLDY    68  32  26 S16G26    29.97R

$$



USA.gov is the U.S. government's official web portal to all federal, state and local government web resources and services.